This demonstration page uses our WeatherBlox Daily Observations layout. Learn more.

Left ArrowRight Arrow

Hourly Observations for September 3, 2022

Temp ( °F °C ) Dew Point ( °F °C ) Humidity (%) Winds ( mph kmh ) Pressure ( in mb ) Visibility ( mi km ) Precip ( " mm )
12:55 am 00:55 Clear 75 24.1 68 19.8 77 77 Calm 30.05 1018 10 16 0.00 0.00
1:55 am 01:55 Partly Cloudy 74 23.3 67 19.4 79 79 N 6 9 30.06 1018 10 16 0.00 0.00
2:55 am 02:55 Mostly Cloudy 73 22.9 59 15 61 61 N 13 20 30.08 1019 10 16 0.00 0.00
3:55 am 03:55 Clear 70 21.3 60 15.4 69 69 N 9 15 30.09 1019 10 16 0.00 0.00
4:55 am 04:55 Clear 68 20.2 54 12.4 61 61 N 8 13 30.13 1020 10 16 0.00 0.00
5:55 am 05:55 Clear 66 18.9 53 11.9 64 64 N 7 11 30.14 1021 10 16 0.00 0.00
6:55 am 06:55 Sunny 65 18.1 54 12.1 68 68 N 7 11 30.17 1022 10 16 0.00 0.00
7:55 am 07:55 Sunny 64 18 54 12 68 68 N 9 15 30.19 1023 10 16 0.00 0.00
8:55 am 08:55 Sunny 66 18.8 53 11.6 63 63 N 13 20 30.20 1023 10 16 0.00 0.00
9:55 am 09:55 Sunny 69 20.3 54 12 59 59 N 13 20 30.21 1023 10 16 0.00 0.00
10:55 am 10:55 Sunny 71 21.8 55 12.6 56 56 N 10 17 30.21 1023 10 16 0.00 0.00
11:55 am 11:55 Sunny 75 24.1 54 12.1 47 47 NNW 9 15 30.18 1022 10 16 0.00 0.00
12:55 pm 12:55 Sunny 77 25 52 11.2 42 42 N 14 22 30.20 1023 10 16 0.00 0.00
1:55 pm 13:55 Sunny 79 26.3 51 10.8 38 38 N 10 17 30.20 1023 10 16 0.00 0.00
2:55 pm 14:55 Sunny 81 27.3 50 10 34 34 N 9 15 30.18 1022 10 16 0.00 0.00
3:55 pm 15:55 Sunny 82 27.6 50 9.9 33 33 N 12 19 30.16 1021 10 16 0.00 0.00
4:55 pm 16:55 Sunny 82 27.9 49 9.2 31 31 N 9 15 30.15 1021 10 16 0.00 0.00
5:55 pm 17:55 Sunny 81 27 49 9.3 33 33 NE 8 13 30.14 1021 10 16 0.00 0.00
6:55 pm 18:55 Sunny 79 26 48 8.9 34 34 NNE 7 11 30.14 1021 10 16 0.00 0.00
7:55 pm 19:55 Clear 74 23.6 49 9.6 41 41 N 6 9 30.16 1021 10 16 0.00 0.00
8:55 pm 20:55 Clear 72 22.3 50 10.1 46 46 N 6 9 30.17 1022 10 16 0.00 0.00
9:55 pm 21:55 Clear 71 21.4 50 10.2 49 49 N 6 9 30.18 1022 10 16 0.00 0.00
10:55 pm 22:55 Clear 70 21 51 10.8 52 52 NNE 7 11 30.19 1022 10 16 0.00 0.00
11:55 pm 23:55 Clear 67 19.5 53 11.5 60 60 NNE 7 11 30.19 1022 10 16 0.00 0.00

Powered by AerisWeather